Weather History for Dalhart, TX

Change the Weather History Date:

Tuesday, February 19, 2013

  Actual Average Record
Temperature  
Mean Temperature 37 °F 38 °F  
Max Temperature 56 °F 54 °F 76 °F (1986)
Min Temperature 18 °F 23 °F 2 °F (1955)
Degree Days  
Heating Degree Days 28 26  
Month to date heating degree days 479 534  
Since 1 July heating degree days 3045 3416  
Cooling Degree Days 0 0  
Month to date cooling degree days 0 0  
Year to date cooling degree days 0 0  
Moisture  
Dew Point 16 °F    
Average Humidity 47    
Maximum Humidity 71    
Minimum Humidity 22    
Precipitation  
Precipitation 0.00 in 0.01 in 0.70 in (1954)
Month to date precipitation 0.26 0.27  
Year to date precipitation 0.43 0.79  
Snow  
Snow 0.00 in 0.10 in 3.00 in (1969)
Month to date snowfall 8.0 2.3  
Since 1 July snowfall 12.5 12.8  
Snow Depth 0.00 in    
Sea Level Pressure  
Sea Level Pressure 30.08 in    
Wind  
Wind Speed 15 mph (SSW)    
Max Wind Speed 31 mph    
Max Gust Speed 37 mph    
Visibility 10 miles    
Events      
T = Trace of Precipitation, MM = Missing Value Source: NWS Daily Summary

Daily Weather History Graph

Daily Weather History Graph

Search for Another Location

Airport:

Trip Planner

Search our weather history database for the weather conditions in past years. The results will help you decide how hot, cold, wet, or windy it might be!

Date:

Astronomy

Feb. 19, 2013 Rise Set
Actual Time 7:32 AM CST 6:35 PM CST
Civil Twilight 7:06 AM CST 7:01 PM CST
Nautical Twilight 6:36 AM CST 7:31 PM CST
Astronomical Twilight 6:06 AM CST 8:01 PM CST
Moon 1:14 PM CST (2/19) 3:00 AM CST (2/19)
Length of Visible Light 11h 55m
Length of Day
11h 03m
Waxing Gibbous, 67% of the Moon is Illuminated
Feb 19
Waxing Gibbous
Feb 25
Full
Mar 4
Last Quarter
Mar 11
New
Mar 19
First Quarter

Hourly Weather History & Observations

Time (CST) Temp. Windchill Dew Point Humidity Pressure Visibility Wind Dir Wind Speed Gust Speed Precip Events Conditions
12:53 AM 26.1 °F - 15.1 °F 63% 30.14 in 10.0 mi Calm Calm - N/A   Clear
1:53 AM 25.0 °F 20.7 °F 15.1 °F 66% 30.15 in 10.0 mi NNW 3.5 mph - N/A   Clear
2:53 AM 21.9 °F 14.5 °F 14.0 °F 72% 30.16 in 10.0 mi NW 5.8 mph - N/A   Clear
3:53 AM 21.0 °F 16.2 °F 12.0 °F 68% 30.15 in 10.0 mi WNW 3.5 mph - N/A   Clear
4:53 AM 19.9 °F 12.1 °F 10.9 °F 68% 30.16 in 10.0 mi NW 5.8 mph - N/A   Clear
5:53 AM 19.9 °F 13.4 °F 10.9 °F 68% 30.17 in 10.0 mi WNW 4.6 mph - N/A   Clear
6:53 AM 19.0 °F 11.1 °F 10.9 °F 71% 30.19 in 10.0 mi NW 5.8 mph - N/A   Clear
7:53 AM 19.0 °F 13.9 °F 10.9 °F 71% 30.21 in 10.0 mi NNW 3.5 mph - N/A   Clear
8:53 AM 27.0 °F - 15.1 °F 61% 30.20 in 10.0 mi Calm Calm - N/A   Clear
9:53 AM 37.0 °F 28.1 °F 19.0 °F 48% 30.19 in 10.0 mi South 15.0 mph - N/A   Clear
10:53 AM 44.1 °F 35.7 °F 17.1 °F 34% 30.16 in 10.0 mi South 20.7 mph 29.9 mph N/A   Clear
12:53 PM 51.8 °F - 17.6 °F 26% 30.10 in 10.0 mi South 26.5 mph 32.2 mph N/A   Clear
1:53 PM 53.1 °F - 18.0 °F 25% 30.04 in 10.0 mi South 23.0 mph 33.4 mph N/A   Clear
2:53 PM 55.0 °F - 17.1 °F 23% 29.99 in 10.0 mi South 23.0 mph 34.5 mph N/A   Clear
3:53 PM 55.0 °F - 17.1 °F 23% 29.97 in 10.0 mi South 25.3 mph 35.7 mph N/A   Clear
4:53 PM 54.0 °F - 16.0 °F 22% 29.96 in 10.0 mi SSE 28.8 mph 33.4 mph N/A   Clear
6:53 PM 48.0 °F - 15.1 °F 27% 29.99 in 10.0 mi South 25.3 mph 31.1 mph N/A   Clear
7:53 PM 45.0 °F 37.6 °F 16.0 °F 31% 30.01 in 10.0 mi SSE 17.3 mph - N/A   Clear
8:53 PM 43.0 °F 34.0 °F 16.0 °F 34% 29.99 in 10.0 mi SSE 21.9 mph - N/A   Clear
9:53 PM 39.9 °F 32.5 °F 17.1 °F 40% 29.97 in 10.0 mi SE 12.7 mph - N/A   Clear
10:53 PM 36.0 °F 27.5 °F 19.0 °F 50% 29.93 in 10.0 mi SSE 12.7 mph - N/A   Mostly Cloudy
11:53 PM 43.0 °F 34.0 °F 21.9 °F 43% 29.88 in 10.0 mi South 21.9 mph 28.8 mph N/A   Overcast